When you browse on this site, cookies collect data to enhance your experience and personalize the content and advertising you see.
Visit our Privacy Policy to learn more. By continuing to use the site, you agree to this use of cookies and data.
  • en France
  • Liste des pays
  • À 7 jours
  • Température de l'eau
  • Carte satellitaire
  • Carte météo
  • Widgets météo
  • user-avatar
    Se connecter

    Météo par heure à Gjirokastёr

    Ce jour, 16 Février, Samedi

    Heure Température Précipitation Vent Pression Humidité
    00:00 -5°C° 0 mm 2 m/s 654 mmHg 68%
    01:00 -5°C° 0 mm 2 m/s 654 mmHg 69%
    02:00 -5°C° 0 mm 2 m/s 654 mmHg 69%
    03:00 -5°C° 0 mm 2 m/s 654 mmHg 68%
    04:00 -5°C° 0 mm 2 m/s 654 mmHg 68%
    05:00 -5°C° 0 mm 2 m/s 654 mmHg 66%
    06:00 -5°C° 0 mm 2 m/s 654 mmHg 65%
    07:00 -5°C° 0 mm 2 m/s 654 mmHg 64%
    08:00 -3°C° 0 mm 2 m/s 655 mmHg 57%
    09:00 -1°C° 0 mm 2 m/s 656 mmHg 50%
    10:00 +2°C° 0 mm 2 m/s 657 mmHg 43%
    11:00 +3°C° 0 mm 2 m/s 657 mmHg 41%
    12:00 +4°C° 0 mm 2 m/s 657 mmHg 39%
    13:00 +6°C° 0 mm 1 m/s 657 mmHg 37%
    14:00 +6°C° 0 mm 1 m/s 657 mmHg 40%
    15:00 +5°C° 0 mm 1 m/s 657 mmHg 43%
    16:00 +5°C° 0 mm 1 m/s 656 mmHg 46%
    17:00 +3°C° 0 mm 2 m/s 656 mmHg 49%
    18:00 +1°C° 0 mm 2 m/s 656 mmHg 53%
    19:00 -1°C° 0 mm 2 m/s 656 mmHg 56%
    20:00 -2°C° 0 mm 2 m/s 656 mmHg 58%
    21:00 -2°C° 0 mm 2 m/s 655 mmHg 59%
    22:00 -2°C° 0 mm 2 m/s 655 mmHg 61%
    23:00 -3°C° 0 mm 2 m/s 655 mmHg 61%

    Demain, 17 Février, Dimanche

    Heure Température Précipitation Vent Pression Humidité
    00:00 -3°C° 0 mm 2 m/s 655 mmHg 61%
    01:00 -3°C° 0 mm 2 m/s 655 mmHg 60%
    02:00 -3°C° 0 mm 2 m/s 655 mmHg 59%
    03:00 -3°C° 0 mm 2 m/s 655 mmHg 58%
    04:00 -3°C° 0 mm 2 m/s 655 mmHg 57%
    05:00 -3°C° 0 mm 2 m/s 655 mmHg 56%
    06:00 -3°C° 0 mm 2 m/s 655 mmHg 55%
    07:00 -3°C° 0 mm 2 m/s 655 mmHg 53%
    08:00 +1°C° 0 mm 1 m/s 655 mmHg 48%
    09:00 +3°C° 0 mm 1 m/s 656 mmHg 42%
    10:00 +6°C° 0 mm 1 m/s 657 mmHg 36%
    11:00 +6°C° 0 mm 1 m/s 657 mmHg 35%
    12:00 +7°C° 0 mm 1 m/s 657 mmHg 35%
    13:00 +7°C° 0 mm 2 m/s 657 mmHg 34%
    14:00 +7°C° 0 mm 2 m/s 657 mmHg 38%
    15:00 +6°C° 0 mm 2 m/s 656 mmHg 43%
    16:00 +6°C° 0 mm 2 m/s 656 mmHg 47%
    17:00 +5°C° 0 mm 2 m/s 656 mmHg 51%
    18:00 +4°C° 0 mm 1 m/s 655 mmHg 55%
    19:00 +3°C° 0 mm 1 m/s 655 mmHg 59%
    20:00 +2°C° 0 mm 1 m/s 655 mmHg 59%
    21:00 +2°C° 0 mm 1 m/s 655 mmHg 59%
    22:00 +2°C° 0 mm 1 m/s 655 mmHg 58%
    23:00 +1°C° 0 mm 1 m/s 655 mmHg 58%

    Après-demain, 18 Février, Lundi

    Heure Température Précipitation Vent Pression Humidité
    00:00 +1°C° 0 mm 1 m/s 654 mmHg 57%
    01:00 +1°C° 0 mm 1 m/s 654 mmHg 56%
    02:00 +1°C° 0 mm 1 m/s 654 mmHg 55%
    03:00 +1°C° 0 mm 1 m/s 654 mmHg 55%
    04:00 0°C° 0 mm 1 m/s 653 mmHg 54%
    05:00 0°C° 0 mm 1 m/s 653 mmHg 54%
    06:00 0°C° 0 mm 1 m/s 654 mmHg 53%
    07:00 0°C° 0 mm 1 m/s 654 mmHg 53%
    08:00 +2°C° 0 mm 1 m/s 654 mmHg 49%
    09:00 +4°C° 0 mm 1 m/s 655 mmHg 45%
    10:00 +5°C° 0 mm 0 m/s 656 mmHg 41%
    11:00 +7°C° 0 mm 1 m/s 656 mmHg 41%
    12:00 +8°C° 0 mm 1 m/s 656 mmHg 41%
    13:00 +9°C° 0 mm 1 m/s 656 mmHg 41%
    14:00 +8°C° 0 mm 1 m/s 655 mmHg 45%
    15:00 +8°C° 0 mm 1 m/s 655 mmHg 48%
    16:00 +8°C° 0 mm 1 m/s 655 mmHg 51%
    17:00 +6°C° 0 mm 1 m/s 655 mmHg 59%
    18:00 +5°C° 0 mm 1 m/s 654 mmHg 66%
    19:00 +3°C° 0 mm 1 m/s 654 mmHg 73%
    20:00 +3°C° 0 mm 1 m/s 654 mmHg 73%
    21:00 +2°C° 0 mm 0 m/s 654 mmHg 74%
    22:00 +1°C° 0 mm 0 m/s 654 mmHg 75%
    23:00 +1°C° 0 mm 0 m/s 654 mmHg 75%

    19 Février, Mardi

    Heure Température Précipitation Vent Pression Humidité
    00:00 +1°C° 0 mm 0 m/s 654 mmHg 76%
    01:00 +1°C° 0 mm 0 m/s 654 mmHg 76%
    02:00 0°C° 0 mm 0 m/s 654 mmHg 77%
    03:00 0°C° 0 mm 0 m/s 654 mmHg 77%
    04:00 0°C° 0 mm 0 m/s 654 mmHg 78%
    05:00 +1°C° 0 mm 1 m/s 654 mmHg 77%
    06:00 +1°C° 0 mm 1 m/s 654 mmHg 77%
    07:00 +1°C° 0 mm 1 m/s 654 mmHg 77%
    08:00 +2°C° 0 mm 1 m/s 655 mmHg 71%
    09:00 +4°C° 0 mm 1 m/s 655 mmHg 64%
    10:00 +6°C° 0 mm 1 m/s 656 mmHg 58%
    11:00 +7°C° 0 mm 1 m/s 656 mmHg 55%
    12:00 +7°C° 0 mm 1 m/s 656 mmHg 53%
    13:00 +7°C° 0 mm 2 m/s 656 mmHg 50%
    14:00 +7°C° 0 mm 2 m/s 656 mmHg 54%
    15:00 +7°C° 0 mm 2 m/s 655 mmHg 57%
    16:00 +6°C° 0 mm 2 m/s 655 mmHg 61%
    17:00 +6°C° 0 mm 1 m/s 655 mmHg 69%
    18:00 +5°C° 0 mm 1 m/s 655 mmHg 76%
    19:00 +3°C° 0 mm 1 m/s 655 mmHg 84%
    20:00 +2°C° 0 mm 0 m/s 655 mmHg 86%
    21:00 +1°C° 0 mm 0 m/s 655 mmHg 88%
    22:00 +1°C° 0 mm 0 m/s 655 mmHg 89%
    23:00 +1°C° 0 mm 0 m/s 655 mmHg 89%

    20 Février, Mercredi

    Heure Température Précipitation Vent Pression Humidité
    00:00 0°C° 0 mm 0 m/s 655 mmHg 90%
    01:00 0°C° 0 mm 0 m/s 654 mmHg 90%
    02:00 0°C° 0 mm 0 m/s 654 mmHg 90%
    03:00 0°C° 0 mm 0 m/s 654 mmHg 90%
    04:00 0°C° 0 mm 1 m/s 654 mmHg 90%
    05:00 0°C° 0 mm 1 m/s 654 mmHg 89%
    06:00 0°C° 0 mm 1 m/s 654 mmHg 88%
    07:00 0°C° 0 mm 1 m/s 654 mmHg 87%
    08:00 +2°C° 0 mm 1 m/s 655 mmHg 77%
    09:00 +4°C° 0 mm 1 m/s 656 mmHg 67%
    10:00 +6°C° 0 mm 1 m/s 656 mmHg 57%
    11:00 +5°C° 0 mm 2 m/s 656 mmHg 55%
    12:00 +6°C° 0 mm 2 m/s 656 mmHg 53%
    13:00 +7°C° 0 mm 2 m/s 657 mmHg 50%
    14:00 +7°C° 0 mm 2 m/s 656 mmHg 53%
    15:00 +7°C° 0 mm 2 m/s 656 mmHg 55%
    16:00 +6°C° 0 mm 2 m/s 656 mmHg 57%
    17:00 +5°C° 0 mm 2 m/s 656 mmHg 64%
    18:00 +4°C° 0 mm 2 m/s 656 mmHg 71%
    19:00 +2°C° 0 mm 2 m/s 655 mmHg 77%
    20:00 +3°C° 0 mm 1 m/s 655 mmHg 77%
    21:00 +2°C° 0 mm 1 m/s 655 mmHg 78%
    22:00 +2°C° 0 mm 1 m/s 655 mmHg 78%
    23:00 +2°C° 0 mm 1 m/s 655 mmHg 77%

    21 Février, Jeudi

    Heure Température Précipitation Vent Pression Humidité
    00:00 +2°C° 0 mm 1 m/s 655 mmHg 76%
    01:00 +1°C° 0 mm 1 m/s 655 mmHg 76%
    02:00 +1°C° 0 mm 1 m/s 655 mmHg 75%
    03:00 +1°C° 0 mm 1 m/s 655 mmHg 74%
    04:00 +1°C° 0 mm 1 m/s 655 mmHg 73%
    05:00 +1°C° 0 mm 1 m/s 655 mmHg 72%
    06:00 +1°C° 0 mm 1 m/s 655 mmHg 71%
    07:00 +1°C° 0 mm 1 m/s 655 mmHg 70%
    08:00 +3°C° 0 mm 1 m/s 655 mmHg 63%
    09:00 +5°C° 0 mm 1 m/s 656 mmHg 55%
    10:00 +6°C° 0 mm 0 m/s 657 mmHg 48%
    11:00 +8°C° 0 mm 1 m/s 657 mmHg 46%
    12:00 +9°C° 0 mm 1 m/s 657 mmHg 44%
    13:00 +9°C° 0 mm 1 m/s 656 mmHg 43%
    14:00 +8°C° 0 mm 2 m/s 656 mmHg 46%
    15:00 +8°C° 0 mm 2 m/s 656 mmHg 50%
    16:00 +7°C° 0 mm 2 m/s 656 mmHg 53%
    17:00 +6°C° 0 mm 2 m/s 655 mmHg 62%
    18:00 +5°C° 0 mm 1 m/s 655 mmHg 70%
    19:00 +4°C° 0 mm 1 m/s 655 mmHg 78%
    20:00 +4°C° 0 mm 1 m/s 655 mmHg 79%
    21:00 +3°C° 0 mm 1 m/s 655 mmHg 80%
    22:00 +3°C° 0 mm 1 m/s 655 mmHg 80%
    23:00 +2°C° 0 mm 1 m/s 654 mmHg 80%
    Voir plus